Location: Gleizolles
(44.4833°N, 6.7667°E)
Time: 08:23:33
(UTC+00:00)

Daily predictions for brighter satellites

Satellite Brightness Start Highest point End
(mag) Time Altitude Azimuth Time Altitude Azimuth Time Altitude Azimuth
Meteor 1-16 Rocket 4.2 18:32:10 10° S 18:37:29 59° E 18:42:59 10° NNE
Cosmos 614 Rocket 4.2 18:32:43 10° S 18:37:44 50° ESE 18:42:46 10° NNE
CZ-2C R/B 3.3 18:33:50 10° SE 18:38:24 44° ENE 18:42:55 10° N
STARLINK-29 3.1 18:39:04 10° SW 18:42:09 51° SE 18:45:18 10° ENE
Cosmos 1190 Rocket 4.5 18:38:55 10° S 18:43:49 40° ESE 18:48:44 10° NE
Aureole 1 Rocket 4.2 18:37:31 10° S 18:44:49 56° ESE 18:50:35 10° NNE
SJ-6B 3.6 18:41:11 10° SE 18:44:57 35° ENE 18:48:44 10° N
Cosmos 1300 4.5 18:44:22 10° ESE 18:46:24 14° E 18:48:26 10° NE
IRIDIUM 104 4.3 18:41:23 10° N 18:46:38 76° E 18:51:50 10° S
BREEZE-M DEB (TANK) 4.2 18:40:03 10° WNW 18:47:44 59° N 18:50:43 10° E
STARLINK-60 3.5 18:46:30 10° WSW 18:49:46 63° NNW 18:53:01 10° NE
Cosmos 2369 Rocket 3.4 18:45:51 10° NW 18:51:12 44° WSW 18:56:30 10° S
ARGOS Delta rocket 4.2 18:45:55 10° SSE 18:51:15 88° W 18:56:47 10° N
CZ-2C R/B 4.5 18:51:33 10° NNE 18:55:44 31° E 18:59:48 10° SSE
IRIDIUM 114 4.4 18:50:32 10° N 18:55:47 89° W 19:01:00 10° S
Cosmos 2058 Rocket 3.6 18:54:25 10° SSE 18:58:37 39° E 19:02:49 10° NNE
Cosmos 1726 Rocket 3.5 18:56:51 10° S 19:01:13 66° E 19:05:38 10° NNE
SL-08 RB Rocket 4.0 18:57:32 10° SE 19:01:55 48° ENE 19:06:22 10° N
STARLINK-1228 3.2 19:00:33 10° NW 19:03:25 48° NNE 19:05:31 16° E
Cosmos 1461 3.2 18:59:13 10° NNW 19:03:45 65° NE 19:08:01 12° SE
Cosmos 1726 3.2 19:02:19 10° SSW 19:05:58 50° WNW 19:09:37 10° N
Cosmos 921 Rocket 3.4 19:02:20 10° N 19:06:19 41° ENE 19:09:43 13° SE
SL-4 R/B 2.9 19:03:11 10° W 19:06:24 38° NNW 19:09:39 10° NE
Cosmos 1703 3.2 19:02:50 10° N 19:06:50 85° E 19:10:47 10° S
Meteor 2-17 Rocket 4.5 19:01:23 10° N 19:07:32 66° E 19:13:38 10° SSE
Cosmos 1437 4.3 19:06:11 10° NNW 19:09:00 35° W 19:11:46 10° SSW
Cosmos 407 Rocket 3.4 19:04:12 10° SSW 19:09:20 79° ESE 19:14:29 10° NNE
Cosmos 2184 Rocket 4.2 19:03:06 10° N 19:09:23 79° W 19:15:35 10° S
Cosmos 1908 3.1 19:05:49 10° S 19:09:40 83° E 19:13:35 10° N
Cosmos 1340 Rocket 2.9 19:06:11 10° S 19:10:07 53° E 19:14:04 10° NNE
Cosmos 1825 Rocket 3.9 19:05:49 10° NNW 19:10:10 67° W 19:14:28 10° S
FREGAT/IRIS 2.4 19:08:01 10° S 19:10:44 78° W 19:13:27 10° NNW
Cosmos 2228 3.1 19:07:49 10° S 19:12:07 80° W 19:16:30 10° N
STARLINK-1201 3.8 19:09:20 10° NW 19:12:27 41° NNE 19:14:33 18° E
Cosmos 676 Rocket 4.3 19:08:02 10° S 19:13:01 43° ESE 19:17:57 10° NNE
Cosmos 1656 Rocket 4.2 19:07:32 10° NNW 19:13:06 60° WSW 19:18:33 10° S
Cosmos 1328 3.9 19:09:31 10° N 19:13:31 84° W 19:17:31 10° S
ATLAS 5 CENTAUR R/B 4.4 19:13:25 10° SSE 19:16:36 12° SE 19:18:54 12° SE
MOS 1 4.3 19:12:16 10° SSE 19:17:55 85° WSW 19:23:39 10° NNW
MetOp-A 4.3 19:13:37 10° SSE 19:18:49 55° ENE 19:24:03 10° N
Resurs 01 Rocket 2.5 19:17:44 18° ESE 19:20:17 32° ENE 19:24:13 10° N
STARLINK-52 3.0 19:19:19 10° WSW 19:22:31 78° NNW 19:25:44 10° NE
MOS 1 Rocket 4.0 19:18:22 10° NNE 19:23:33 44° E 19:28:42 10° SSE
Nadezhda 1 Rocket 4.1 19:17:59 10° S 19:24:23 89° W 19:30:45 10° N
CZ-2C R/B 3.0 19:19:58 10° NNE 19:24:52 40° E 19:29:45 10° SSE
BREEZE M DEB (TANK) 2.9 19:22:22 10° SSW 19:25:09 42° SE 19:31:51 10° ENE
SPOT 3 Rocket 3.5 19:22:44 10° SSE 19:27:54 69° ENE 19:33:05 10° N
Cosmos 1023 Rocket 4.4 19:23:06 10° SSW 19:28:17 87° ESE 19:33:27 10° NNE
ARGOS 3.4 19:24:00 10° S 19:29:23 70° WSW 19:34:45 10° NNW
FALCON 9 DEB 3.4 19:27:23 10° WSW 19:30:52 68° NNW 19:34:21 10° NE
SL-8 Rocket 4.4 19:25:05 10° N 19:31:05 43° ENE 19:35:13 19° SE
Cosmos 2154 Rocket 4.1 19:26:03 10° N 19:32:25 82° W 19:38:44 10° S
GEOS 3 Rocket 4.4 19:27:46 10° SSE 19:32:42 48° WSW 19:37:45 10° NW
Cosmos 1953 Rocket 4.3 19:28:50 10° NNW 19:33:14 57° W 19:37:38 10° S
Cosmos 1954 Rocket 3.9 19:29:23 10° S 19:34:33 64° ESE 19:39:43 10° NNE
Cosmos 2181 Rocket 4.3 19:28:53 10° SSE 19:34:43 44° E 19:40:31 10° NNE
USA 186 3.3 19:31:57 10° SSW 19:35:01 36° W 19:37:58 10° NNW
NOSS 3-4 (A) 4.2 19:28:24 10° NW 19:35:25 68° WSW 19:42:33 12° SSE
NOSS 3-4 (C) 4.1 19:28:30 10° NW 19:35:32 69° WSW 19:42:37 13° SSE
MINOTAUR IV R/B 4.5 19:31:26 10° SSW 19:35:52 71° ESE 19:40:20 10° NNE
STARLINK-1236 4.5 19:32:02 10° NW 19:35:58 40° NNE 19:38:11 22° E
STARLINK-67 3.2 19:36:28 10° WNW 19:38:55 40° SW 19:39:24 35° S
Cosmos 2366 rocket 4.4 19:39:23 10° N 19:45:13 43° ENE 19:48:11 26° SE
Cosmos 1076 Rocket 4.3 19:41:38 10° N 19:45:32 33° ENE 19:46:20 30° E
BREEZE-M DEB (TANK) 4.0 19:40:53 10° SW 19:45:49 32° SSE 19:45:56 32° SSE
STARLINK-1269 4.3 19:41:58 10° NW 19:45:58 44° NNE 19:47:44 28° E
Cosmos 1763 Rocket 4.4 19:45:18 10° N 19:49:57 32° ENE 19:51:29 27° E
STARLINK-1200 4.2 19:46:57 10° NW 19:50:59 47° NNE 19:52:31 31° E
STARLINK-1234 3.0 19:52:25 10° WNW 19:55:30 60° SW 19:55:47 56° S
STARLINK-1209 3.1 19:52:54 10° WNW 19:55:57 55° SW 19:56:15 52° SSW
STARLINK-1192 4.1 19:51:55 10° NW 19:55:58 50° NNE 19:57:18 35° ENE
STARLINK-1233 2.7 19:53:14 10° WNW 19:56:24 82° SW 19:56:38 73° SSE
STARLINK-1212 2.7 19:53:43 10° WNW 19:56:52 81° SSW 19:57:04 74° SSE
STARLINK-1105 2.7 19:54:09 10° WNW 19:57:18 80° SW 19:57:31 74° SSE
STARLINK-1206 2.7 19:54:38 10° WNW 19:57:45 80° SW 19:57:55 75° S
STARLINK-1247 2.7 19:55:06 10° WNW 19:58:13 79° SW 19:58:22 75° S
STARLINK-1227 2.7 19:55:30 10° WNW 19:58:38 78° SW 19:58:47 75° S
Iridium 4 Rocket 3.6 19:55:13 10° NNE 19:59:05 36° E 19:59:06 36° E
STARLINK-1218 2.7 19:56:00 10° WNW 19:59:07 77° SW 19:59:13 75° S
STARLINK-1226 2.7 19:56:26 10° WNW 19:59:33 77° SW 19:59:40 75° S
STARLINK-1254 2.8 19:56:52 10° WNW 20:00:00 76° SW 20:00:06 75° S
Cosmos 1980 Rocket 4.1 19:56:52 10° N 20:00:04 15° NE 20:02:02 13° ENE
STARLINK-1215 2.8 19:57:21 10° WNW 20:00:28 75° SW 20:00:32 75° SSW
USA 234 3.6 19:54:37 10° ENE 20:00:40 39° SE 20:06:42 10° SSW
STARLINK-1231 2.8 19:57:48 10° WNW 20:00:55 74° SW 20:00:58 74° SSW
STARLINK-1244 4.0 19:56:58 10° NW 20:01:03 53° NNE 20:02:10 40° ENE
Cosmos 1174 4.5 19:57:07 10° NNW 20:01:15 52° NE 20:02:39 39° ESE
STARLINK-1232 2.8 19:58:42 10° WNW 20:01:49 73° SW 20:01:50 73° SSW
STARLINK-1217 2.8 19:59:09 10° WNW 20:02:16 72° SW 20:02:16 72° SW
Abrixas rocket 2.2 19:59:25 10° WNW 20:02:07 60° WSW 20:02:07 60° WSW
Cosmos 1892 3.5 19:58:49 10° N 20:02:13 36° ENE 20:02:13 36° ENE
STARLINK-1208 2.9 19:59:34 10° WNW 20:02:43 72° SW 20:02:43 72° SW
H-2A R/B 3.9 19:58:38 10° SSW 20:03:04 28° W 20:07:26 10° NW
STARLINK-1229 2.9 20:00:03 10° WNW 20:03:07 71° SW 20:03:07 71° SW
STARLINK-1271 2.9 20:00:30 10° WNW 20:03:34 70° SW 20:03:34 70° SW
STARLINK-1270 2.9 20:00:58 10° WNW 20:04:00 69° SW 20:04:00 69° SW
ATLAS 5 CENTAUR R/B 3.1 20:00:36 10° WSW 20:04:31 37° NW 20:08:56 10° NNE
STARLINK-1154 2.9 20:01:25 10° WNW 20:04:26 68° SW 20:04:26 68° SW
STARLINK-1197 3.0 20:02:19 10° WNW 20:05:18 66° SW 20:05:18 66° SW
STARLINK-1189 3.0 20:02:45 10° WNW 20:05:43 65° WSW 20:05:43 65° WSW
STARLINK-1138 3.9 20:01:52 10° NW 20:05:57 57° NNE 20:06:52 45° ENE
STARLINK-1198 3.0 20:03:13 10° WNW 20:06:10 64° WSW 20:06:10 64° WSW
STARLINK-1188 3.1 20:03:39 10° WNW 20:06:35 63° WSW 20:06:35 63° WSW
Cosmos 1825 4.3 20:04:22 10° NNE 20:05:39 15° NE 20:05:39 15° NE
ATLAS 2AS CENTAUR R/B 3.8 20:00:29 10° NW 20:07:20 40° WSW 20:13:00 13° S
STARLINK-1235 3.5 20:04:21 10° WNW 20:07:18 48° SW 20:07:18 48° SW
STARLINK-1187 3.3 20:04:45 10° WNW 20:07:42 55° SW 20:07:42 55° SW
STARLINK-1199 3.2 20:05:36 10° WNW 20:08:31 60° WSW 20:08:31 60° WSW
STARLINK-1191 3.2 20:06:03 10° WNW 20:08:56 59° WSW 20:08:56 59° WSW
STARLINK-1210 3.2 20:06:31 10° WNW 20:09:23 58° WSW 20:09:23 58° WSW
STARLINK-1221 3.3 20:06:58 10° WNW 20:09:49 57° WSW 20:09:49 57° WSW
STARLINK-1219 3.3 20:07:25 10° WNW 20:10:15 56° WSW 20:10:15 56° WSW
COSMOS 2455 3.2 20:04:37 10° NW 20:10:33 61° WSW 20:13:57 26° S
STARLINK-1143 3.8 20:06:50 10° NW 20:10:57 60° NNE 20:11:39 51° ENE
STARLINK-1222 3.3 20:07:52 10° WNW 20:10:40 55° WSW 20:10:40 55° WSW
STARLINK-1211 3.4 20:08:20 10° WNW 20:11:07 54° WSW 20:11:07 54° WSW
STARLINK-1214 3.4 20:08:47 10° WNW 20:11:33 54° WSW 20:11:33 54° WSW
STARLINK-1245 3.5 20:09:15 10° WNW 20:11:57 52° WSW 20:11:57 52° WSW
STARLINK-1238 3.5 20:09:40 10° WNW 20:12:25 52° WSW 20:12:25 52° WSW
STARLINK-1205 3.5 20:10:37 10° WNW 20:13:16 50° WSW 20:13:16 50° WSW
STARLINK-1204 3.6 20:11:04 10° WNW 20:13:42 49° WSW 20:13:42 49° WSW
ERBS 2.7 20:11:16 10° NW 20:14:20 53° NNE 20:14:20 53° NNE
STARLINK-1241 3.7 20:11:51 10° NW 20:15:59 65° NNE 20:16:28 59° ENE
IGS 5A 4.0 20:20:27 41° ENE 20:20:27 41° ENE 20:24:02 10° N
STARLINK-1239 3.6 20:16:48 10° NW 20:20:56 70° NNE 20:21:14 66° ENE
Cosmos 1300 3.9 20:18:03 10° SSW 20:21:40 41° WNW 20:25:19 10° N
SAR-Lupe-2 3.7 20:18:12 10° NNE 20:21:15 62° NNE 20:21:15 62° NNE
ATLAS CENTAUR R/B 3.1 20:19:27 10° N 20:22:10 19° NE 20:22:10 19° NE
Spot 2 Rocket 3.4 20:22:15 52° SE 20:23:23 71° ENE 20:28:29 10° N
STARLINK-1240 3.5 20:21:47 10° NW 20:25:55 75° NNE 20:26:01 74° NE
USA 32 4.4 20:21:17 10° N 20:26:19 44° E 20:26:24 44° E
Cosmos 1850 Rocket 3.8 20:24:22 36° S 20:26:30 74° ESE 20:31:40 10° NNE
Cosmos 841 Rocket 4.1 20:24:16 10° N 20:29:14 39° ENE 20:29:32 39° ENE
Terra 3.2 20:29:53 24° NE 20:29:53 24° NE 20:33:12 10° N
In-Cosmos 22 Rocket 4.3 20:24:33 10° NNW 20:30:25 79° W 20:32:45 38° S
Cosmos 2082 Rocket 4.2 20:34:09 13° ENE 20:34:09 13° ENE 20:35:01 10° NE
SPOT 5 3.8 20:31:40 28° NE 20:31:40 28° NE 20:34:40 10° N
STARLINK-1216 3.6 20:26:44 10° NW 20:30:47 79° N 20:30:47 79° N
Meteor 2-10 Rocket 3.8 20:33:52 48° ENE 20:33:52 48° ENE 20:38:39 10° NNE
MetOp-B 4.1 20:32:14 48° S 20:33:49 83° WSW 20:39:13 10° NNW
SL-08 R/B 4.4 20:29:09 10° N 20:35:19 70° E 20:36:45 52° SE
STARLINK-1237 3.7 20:31:42 10° NW 20:35:33 76° NW 20:35:33 76° NW
Cosmos 1833 Rocket 3.7 20:39:02 31° ENE 20:39:02 31° ENE 20:42:19 10° NE
STARLINK-1202 3.8 20:36:42 10° WNW 20:40:21 68° WNW 20:40:21 68° WNW
Cosmos 468 Rocket 3.9 20:36:39 10° NNW 20:41:49 78° WSW 20:42:31 65° S
SL-4 R/B 3.6 20:43:43 10° NW 20:46:33 24° N 20:46:33 24° N
ERS-1 Rocket 3.1 20:47:01 57° ENE 20:47:01 57° ENE 20:51:43 10° N
Cosmos 1408 4.0 20:44:47 10° N 20:46:55 33° N 20:46:55 33° N
STARLINK-1246 4.3 20:46:39 10° WNW 20:49:54 53° WNW 20:49:54 53° WNW
RESURS DK-1 3.1 20:47:06 10° NNW 20:50:15 47° N 20:50:15 47° N
BREEZE M DEB (TANK) 3.6 20:47:12 10° W 20:53:20 48° NNW 20:53:25 48° NNW
Cosmos 1766 Rocket 4.5 20:49:41 10° N 20:52:50 40° NNE 20:52:50 40° NNE
Cosmos 1570 Rocket 3.9 20:49:11 10° NNW 20:54:32 77° ENE 20:54:32 77° ENE
Okean 3 Rocket 4.2 20:51:13 10° N 20:54:34 48° NNE 20:54:34 48° NNE
Resurs 01 Rocket 3.4 20:55:17 22° SW 20:56:47 26° W 21:00:31 10° NW
COSMOS 2406 3.1 20:54:52 43° SSW 20:56:51 84° WNW 21:02:36 10° NNE
Cosmos 2058 4.0 20:53:28 10° NNW 20:57:20 39° W 20:57:23 39° W
CZ-4C R/B 3.5 20:52:58 10° NNW 20:59:45 47° NE 21:01:49 39° E
CZ-2C R/B 4.5 21:00:38 10° N 21:04:59 28° WNW 21:09:21 10° WSW
Cosmos 2151 4.0 21:04:38 10° NNW 21:07:34 43° NNW 21:07:34 43° NNW
Cosmos 1697 Rocket 2.7 21:09:10 10° NNW 21:14:29 74° NNE 21:14:29 74° NNE
Cosmos 2369 3.7 21:09:18 10° NNW 21:14:34 73° NNE 21:14:34 73° NNE
SPOT 1/Viking Rocket 4.3 21:30:44 45° W 21:30:44 45° W 21:35:33 10° NNW
Cosmos 1656 4.5 21:27:43 10° NW 21:32:50 43° W 21:32:50 43° W
Cosmos 540 Rocket 4.2 21:30:20 10° NNW 21:34:20 50° NW 21:34:20 50° NW
SL-16 R/B 3.8 21:32:01 10° N 21:36:11 24° NE 21:36:11 24° NE
Cosmos 2360 Rocket 4.5 21:34:14 10° NNE 21:36:40 13° NE 21:37:32 12° NE
Nadezhda 3 Rocket 4.3 21:41:26 60° W 21:41:54 61° WNW 21:48:08 10° N
Cosmos 2322 Rocket 3.9 21:39:06 10° N 21:43:04 22° NE 21:43:04 22° NE
USA 234 3.4 21:37:26 10° NE 21:43:56 69° NNW 21:50:25 10° WSW
Cosmos 1980 Rocket 2.7 21:39:25 10° NNW 21:43:48 54° N 21:43:48 54° N
Meteor 2-3 Rocket 4.3 21:50:53 10° NNW 21:55:21 54° NW 21:55:21 54° NW
ATLAS CENTAUR R/B 4.2 21:57:45 10° NW 21:58:21 14° NW 21:58:21 14° NW
Terra 3.6 22:08:45 28° NW 22:08:45 28° NW 22:11:24 10° NNW
Mayak 1.4 22:04:00 10° N 22:04:58 17° N 22:04:58 17° N
Cosmos 2082 Rocket 3.3 22:15:56 42° N 22:15:56 42° N 22:19:56 10° NNE
Cosmos 1833 Rocket 4.1 22:20:38 33° WNW 22:21:04 33° NW 22:26:10 10° N
Cosmos 2344 4.4 22:27:03 10° NW 22:36:54 82° SW 22:38:34 71° S
CZ-4C R/B 3.6 22:41:27 10° NW 22:47:00 46° W 22:47:00 46° W
SL-16 R/B 3.9 23:15:31 10° NNW 23:18:02 27° NW 23:18:02 27° NW
Cosmos 2360 Rocket 3.8 23:16:19 10° NNW 23:19:17 31° N 23:19:17 31° N
Cosmos 2322 Rocket 4.0 23:22:28 10° NNW 23:24:52 26° NW 23:24:52 26° NW
Cosmos 2333 Rocket 3.8 23:38:55 10° NNW 23:42:25 30° NNE 23:42:25 30° NNE
SL-16 R/B 4.3 23:48:42 23° ENE 23:49:22 23° ENE 23:54:06 10° N
